Time,TemperatureF,DewpointF,PressureIn,WindDirection,WindDirectionDegrees,WindSpeedMPH,WindSpeedGustMPH,Humidity,HourlyPrecipIn,Conditions,Clouds,dailyrainin,SoftwareType,DateUTC
2013-04-05 00:03:00,41.0,27.0,29.97,ESE,102,0.0,1.0,58,0.00,,,0.00,,2013-04-05 04:03:00,
2013-04-05 00:12:00,41.0,27.0,29.97,ESE,102,0.0,1.0,58,0.00,,,0.00,,2013-04-05 04:12:00,
2013-04-05 00:23:00,41.0,28.0,29.96,ESE,102,0.0,1.0,60,0.00,,,0.00,,2013-04-05 04:23:00,
2013-04-05 00:33:00,40.0,27.0,29.96,ESE,102,0.0,0.0,60,0.00,,,0.00,,2013-04-05 04:33:00,
2013-04-05 00:42:00,40.0,27.0,29.96,ESE,102,0.0,0.0,60,0.00,,,0.00,,2013-04-05 04:42:00,
2013-04-05 00:52:00,39.0,26.0,29.96,ESE,102,0.0,0.0,60,0.00,,,0.00,,2013-04-05 04:52:00,
2013-04-05 01:02:00,39.0,28.0,29.96,ESE,102,0.0,0.0,64,0.00,,,0.00,,2013-04-05 05:02:00,
2013-04-05 01:13:00,39.0,28.0,29.96,ESE,102,0.0,0.0,64,0.00,,,0.00,,2013-04-05 05:13:00,
2013-04-05 01:22:00,39.0,27.0,29.96,ESE,102,0.0,0.0,62,0.00,,,0.00,,2013-04-05 05:22:00,
2013-04-05 01:32:00,39.0,29.0,29.95,ESE,102,1.0,2.0,67,0.00,,,0.00,,2013-04-05 05:32:00,
2013-04-05 01:42:00,39.0,29.0,29.95,ESE,102,1.0,2.0,67,0.00,,,0.00,,2013-04-05 05:42:00,
2013-04-05 01:52:00,38.0,27.0,29.95,ESE,102,0.0,2.0,65,0.00,,,0.00,,2013-04-05 05:52:00,
2013-04-05 02:02:00,38.0,26.0,29.95,ESE,102,0.0,0.0,62,0.00,,,0.00,,2013-04-05 06:02:00,
2013-04-05 02:12:00,38.0,26.0,29.95,ESE,102,0.0,0.0,62,0.00,,,0.00,,2013-04-05 06:12:00,
2013-04-05 02:22:00,38.0,27.0,29.96,ESE,102,0.0,0.0,65,0.00,,,0.00,,2013-04-05 06:22:00,
2013-04-05 02:32:00,38.0,28.0,29.96,ESE,102,0.0,0.0,66,0.00,,,0.00,,2013-04-05 06:32:00,
2013-04-05 02:42:00,38.0,28.0,29.96,ESE,102,0.0,0.0,66,0.00,,,0.00,,2013-04-05 06:42:00,
2013-04-05 02:52:00,38.0,27.0,29.95,ESE,102,0.0,0.0,65,0.00,,,0.00,,2013-04-05 06:52:00,
2013-04-05 03:03:00,37.0,26.0,29.95,ESE,102,0.0,0.0,64,0.00,,,0.00,,2013-04-05 07:03:00,
2013-04-05 03:12:00,37.0,26.0,29.95,ESE,102,0.0,0.0,64,0.00,,,0.00,,2013-04-05 07:12:00,
2013-04-05 03:22:00,37.0,27.0,29.95,ESE,102,0.0,0.0,67,0.00,,,0.00,,2013-04-05 07:22:00,
2013-04-05 03:32:00,36.0,26.0,29.95,ESE,102,0.0,0.0,67,0.00,,,0.00,,2013-04-05 07:32:00,
2013-04-05 03:42:00,36.0,26.0,29.95,ESE,102,0.0,0.0,67,0.00,,,0.00,,2013-04-05 07:42:00,
2013-04-05 03:52:00,36.0,26.0,29.95,ESE,102,0.0,0.0,66,0.00,,,0.00,,2013-04-05 07:52:00,
2013-04-05 04:03:00,36.0,26.0,29.95,ESE,102,1.0,2.0,67,0.00,,,0.00,,2013-04-05 08:03:00,
2013-04-05 04:13:00,36.0,26.0,29.95,ESE,102,1.0,2.0,67,0.00,,,0.00,,2013-04-05 08:13:00,
2013-04-05 04:22:00,36.0,26.0,29.95,ESE,102,1.0,3.0,67,0.00,,,0.00,,2013-04-05 08:22:00,
2013-04-05 04:33:00,36.0,26.0,29.96,ESE,102,0.0,0.0,67,0.00,,,0.00,,2013-04-05 08:33:00,
2013-04-05 04:43:00,36.0,26.0,29.96,ESE,102,0.0,0.0,67,0.00,,,0.00,,2013-04-05 08:43:00,
2013-04-05 04:52:00,36.0,26.0,29.96,ESE,102,0.0,0.0,67,0.00,,,0.00,,2013-04-05 08:52:00,
2013-04-05 05:02:00,36.0,28.0,29.96,ESE,102,0.0,0.0,71,0.00,,,0.00,,2013-04-05 09:02:00,
2013-04-05 05:12:00,36.0,28.0,29.96,ESE,102,0.0,0.0,71,0.00,,,0.00,,2013-04-05 09:12:00,
2013-04-05 05:22:00,36.0,28.0,29.96,ESE,102,0.0,0.0,71,0.00,,,0.00,,2013-04-05 09:22:00,
2013-04-05 05:33:00,35.0,26.0,29.97,ESE,102,0.0,0.0,68,0.00,,,0.00,,2013-04-05 09:33:00,
2013-04-05 05:43:00,35.0,26.0,29.97,ESE,102,0.0,0.0,68,0.00,,,0.00,,2013-04-05 09:43:00,
2013-04-05 05:52:00,35.0,26.0,29.98,ESE,102,0.0,0.0,68,0.00,,,0.00,,2013-04-05 09:52:00,
2013-04-05 06:03:00,35.0,26.0,29.98,ESE,102,0.0,0.0,69,0.00,,,0.00,,2013-04-05 10:03:00,
2013-04-05 06:13:00,35.0,26.0,29.98,ESE,102,0.0,0.0,69,0.00,,,0.00,,2013-04-05 10:13:00,
2013-04-05 06:23:00,35.0,26.0,29.98,ESE,102,0.0,0.0,69,0.00,,,0.00,,2013-04-05 10:23:00,
2013-04-05 06:33:00,34.0,25.0,29.98,ESE,102,0.0,0.0,70,0.00,,,0.00,,2013-04-05 10:33:00,
2013-04-05 06:43:00,34.0,25.0,29.98,ESE,102,0.0,0.0,70,0.00,,,0.00,,2013-04-05 10:43:00,
2013-04-05 06:52:00,34.0,25.0,29.99,ESE,102,0.0,0.0,69,0.00,,,0.00,,2013-04-05 10:52:00,
2013-04-05 07:03:00,34.0,25.0,29.99,ESE,102,0.0,0.0,70,0.00,,,0.00,,2013-04-05 11:03:00,
2013-04-05 07:13:00,34.0,25.0,29.99,ESE,102,0.0,0.0,70,0.00,,,0.00,,2013-04-05 11:13:00,
2013-04-05 07:22:00,34.0,26.0,29.99,ESE,102,0.0,0.0,72,0.00,,,0.00,,2013-04-05 11:22:00,
2013-04-05 07:33:00,34.0,26.0,29.99,ESE,102,0.0,0.0,73,0.00,,,0.00,,2013-04-05 11:33:00,
2013-04-05 07:42:00,34.0,26.0,29.99,ESE,102,0.0,0.0,73,0.00,,,0.00,,2013-04-05 11:42:00,
2013-04-05 07:52:00,34.0,26.0,29.99,ESE,102,0.0,0.0,73,0.00,,,0.00,,2013-04-05 11:52:00,
2013-04-05 08:02:00,34.0,27.0,30.00,ESE,102,0.0,0.0,74,0.00,,,0.00,,2013-04-05 12:02:00,
2013-04-05 08:12:00,34.0,27.0,30.00,ESE,102,0.0,0.0,74,0.00,,,0.00,,2013-04-05 12:12:00,
2013-04-05 08:22:00,35.0,28.0,30.01,ESE,102,0.0,0.0,74,0.00,,,0.00,,2013-04-05 12:22:00,
2013-04-05 08:32:00,38.0,30.0,30.01,ESE,102,0.0,0.0,73,0.00,,,0.00,,2013-04-05 12:32:00,
2013-04-05 08:42:00,38.0,30.0,30.01,ESE,102,0.0,0.0,73,0.00,,,0.00,,2013-04-05 12:42:00,
2013-04-05 08:52:00,40.0,31.0,30.01,ESE,102,0.0,1.0,71,0.00,,,0.00,,2013-04-05 12:52:00,
2013-04-05 09:02:00,43.0,32.0,30.01,ESE,103,1.0,5.0,65,0.00,,,0.00,,2013-04-05 13:02:00,
2013-04-05 09:12:00,43.0,32.0,30.01,ESE,103,1.0,5.0,65,0.00,,,0.00,,2013-04-05 13:12:00,
2013-04-05 09:23:00,44.0,32.0,30.01,ESE,104,2.0,5.0,62,0.00,,,0.00,,2013-04-05 13:23:00,
2013-04-05 09:32:00,47.0,34.0,30.01,ESE,104,1.0,4.0,60,0.00,,,0.00,,2013-04-05 13:32:00,
2013-04-05 09:42:00,47.0,34.0,30.01,ESE,104,1.0,4.0,60,0.00,,,0.00,,2013-04-05 13:42:00,
2013-04-05 09:52:00,49.0,34.0,30.01,ESE,104,2.0,3.0,57,0.00,,,0.00,,2013-04-05 13:52:00,
2013-04-05 10:03:00,51.0,34.0,30.01,ESE,105,3.0,5.0,53,0.00,,,0.00,,2013-04-05 14:03:00,
2013-04-05 10:12:00,51.0,34.0,30.01,ESE,105,3.0,5.0,53,0.00,,,0.00,,2013-04-05 14:12:00,
2013-04-05 10:23:00,52.0,34.0,30.01,ESE,122,3.0,7.0,50,0.00,,,0.00,,2013-04-05 14:23:00,
2013-04-05 10:37:00,53.0,33.0,30.01,WSW,250,3.0,6.0,46,0.00,,,0.00,,2013-04-05 14:37:00,
2013-04-05 10:43:00,53.0,33.0,30.01,WSW,250,3.0,6.0,46,0.00,,,0.00,,2013-04-05 14:43:00,
2013-04-05 10:52:00,53.0,33.0,30.01,WSW,255,3.0,7.0,46,0.00,,,0.00,,2013-04-05 14:52:00,
2013-04-05 11:02:00,56.0,34.0,30.02,WNW,291,3.0,8.0,44,0.00,,,0.00,,2013-04-05 15:02:00,
2013-04-05 11:13:00,56.0,34.0,30.02,WNW,291,3.0,8.0,44,0.00,,,0.00,,2013-04-05 15:13:00,
2013-04-05 11:23:00,56.0,33.0,30.02,WNW,302,2.0,7.0,42,0.00,,,0.00,,2013-04-05 15:23:00,
2013-04-05 11:33:00,57.0,35.0,30.02,NW,323,4.0,8.0,43,0.00,,,0.00,,2013-04-05 15:33:00,
2013-04-05 11:43:00,57.0,35.0,30.02,NW,323,4.0,8.0,43,0.00,,,0.00,,2013-04-05 15:43:00,
2013-04-05 11:53:00,57.0,34.0,30.02,NNW,330,4.0,8.0,42,0.00,,,0.00,,2013-04-05 15:53:00,
2013-04-05 12:03:00,58.0,36.0,30.02,NNW,332,2.0,5.0,43,0.00,,,0.00,,2013-04-05 16:03:00,
2013-04-05 12:13:00,58.0,36.0,30.02,NNW,332,2.0,5.0,43,0.00,,,0.00,,2013-04-05 16:13:00,
2013-04-05 12:23:00,59.0,36.0,30.01,NNW,343,1.0,8.0,42,0.00,,,0.00,,2013-04-05 16:23:00,
2013-04-05 12:33:00,60.0,36.0,30.01,NW,306,3.0,6.0,41,0.00,,,0.00,,2013-04-05 16:33:00,
2013-04-05 12:42:00,60.0,36.0,30.01,NW,306,3.0,6.0,41,0.00,,,0.00,,2013-04-05 16:42:00,
2013-04-05 12:52:00,60.0,37.0,30.01,NNW,333,4.0,8.0,43,0.00,,,0.00,,2013-04-05 16:52:00,
2013-04-05 13:03:00,62.0,39.0,30.01,WNW,286,4.0,9.0,43,0.00,,,0.00,,2013-04-05 17:03:00,
2013-04-05 13:13:00,62.0,39.0,30.01,WNW,286,4.0,9.0,43,0.00,,,0.00,,2013-04-05 17:13:00,
2013-04-05 13:23:00,62.0,39.0,30.01,WNW,286,4.0,9.0,43,0.00,,,0.00,,2013-04-05 17:23:00,
2013-04-05 13:33:00,63.0,39.0,30.00,WNW,296,2.0,9.0,41,0.00,,,0.00,,2013-04-05 17:33:00,
2013-04-05 13:45:00,63.0,39.0,30.00,WNW,296,2.0,9.0,41,0.00,,,0.00,,2013-04-05 17:45:00,
2013-04-05 13:53:00,63.0,39.0,30.00,NW,316,2.0,10.0,41,0.00,,,0.00,,2013-04-05 17:53:00,
2013-04-05 14:02:00,63.0,39.0,30.00,NNW,343,4.0,9.0,41,0.00,,,0.00,,2013-04-05 18:02:00,
2013-04-05 14:13:00,63.0,39.0,30.00,NNW,343,4.0,9.0,41,0.00,,,0.00,,2013-04-05 18:13:00,
2013-04-05 14:23:00,63.0,40.0,29.99,NW,315,2.0,13.0,42,0.00,,,0.00,,2013-04-05 18:23:00,
2013-04-05 14:33:00,63.0,38.0,29.99,WNW,297,7.0,12.0,40,0.00,,,0.00,,2013-04-05 18:33:00,
2013-04-05 14:43:00,63.0,38.0,29.99,WNW,297,7.0,12.0,40,0.00,,,0.00,,2013-04-05 18:43:00,
2013-04-05 14:52:00,63.0,40.0,29.99,North,10,5.0,13.0,42,0.00,,,0.00,,2013-04-05 18:52:00,
2013-04-05 15:02:00,62.0,39.0,29.99,NW,326,2.0,13.0,43,0.00,,,0.00,,2013-04-05 19:02:00,
2013-04-05 15:13:00,62.0,39.0,29.99,NW,326,2.0,13.0,43,0.00,,,0.00,,2013-04-05 19:13:00,
2013-04-05 15:23:00,62.0,37.0,29.99,NNE,19,5.0,12.0,40,0.00,,,0.00,,2013-04-05 19:23:00,
2013-04-05 15:33:00,62.0,37.0,29.99,NNE,19,5.0,12.0,40,0.00,,,0.00,,2013-04-05 19:33:00,
2013-04-05 15:42:00,62.0,37.0,29.99,NNE,19,5.0,12.0,40,0.00,,,0.00,,2013-04-05 19:42:00,
2013-04-05 15:52:00,62.0,37.0,29.99,NNE,19,5.0,12.0,40,0.00,,,0.00,,2013-04-05 19:52:00,
2013-04-05 16:22:00,62.0,34.0,29.98,NW,325,6.0,12.0,35,0.00,,,0.00,,2013-04-05 20:22:00,
2013-04-05 16:33:00,62.0,34.0,29.98,NW,325,6.0,12.0,35,0.00,,,0.00,,2013-04-05 20:33:00,
2013-04-05 16:43:00,62.0,34.0,29.98,NW,325,6.0,12.0,35,0.00,,,0.00,,2013-04-05 20:43:00,
2013-04-05 16:52:00,62.0,35.0,29.99,NNW,348,7.0,13.0,36,0.00,,,0.00,,2013-04-05 20:52:00,
2013-04-05 17:03:00,61.0,32.0,29.98,NNW,347,3.0,14.0,34,0.00,,,0.00,,2013-04-05 21:03:00,
2013-04-05 17:13:00,61.0,32.0,29.98,NNW,347,3.0,14.0,34,0.00,,,0.00,,2013-04-05 21:13:00,
2013-04-05 17:23:00,60.0,32.0,29.98,NW,320,4.0,14.0,35,0.00,,,0.00,,2013-04-05 21:23:00,
2013-04-05 17:34:00,60.0,32.0,29.99,North,10,8.0,16.0,34,0.00,,,0.00,,2013-04-05 21:34:00,
2013-04-05 17:53:00,60.0,32.0,29.98,NNW,335,5.0,14.0,35,0.00,,,0.00,,2013-04-05 21:53:00,
2013-04-05 18:03:00,60.0,32.0,29.99,North,352,4.0,10.0,35,0.00,,,0.00,,2013-04-05 22:03:00,
2013-04-05 18:13:00,60.0,32.0,29.99,North,352,4.0,10.0,35,0.00,,,0.00,,2013-04-05 22:13:00,
2013-04-05 18:23:00,60.0,32.0,30.00,NNW,335,4.0,9.0,34,0.00,,,0.00,,2013-04-05 22:23:00,
2013-04-05 18:33:00,59.0,32.0,30.01,NNW,337,4.0,8.0,36,0.00,,,0.00,,2013-04-05 22:33:00,
2013-04-05 18:43:00,59.0,32.0,30.01,NNW,337,4.0,8.0,36,0.00,,,0.00,,2013-04-05 22:43:00,
2013-04-05 18:52:00,59.0,32.0,30.01,NNW,345,2.0,9.0,36,0.00,,,0.00,,2013-04-05 22:52:00,
2013-04-05 19:03:00,58.0,31.0,30.01,North,0,4.0,9.0,36,0.00,,,0.00,,2013-04-05 23:03:00,
2013-04-05 19:12:00,58.0,31.0,30.01,North,0,4.0,9.0,36,0.00,,,0.00,,2013-04-05 23:12:00,
2013-04-05 19:22:00,57.0,30.0,30.00,North,359,2.0,7.0,36,0.00,,,0.00,,2013-04-05 23:22:00,
2013-04-05 19:33:00,57.0,31.0,30.02,NNW,347,2.0,10.0,37,0.00,,,0.00,,2013-04-05 23:33:00,
2013-04-05 19:42:00,57.0,31.0,30.02,NNW,347,2.0,10.0,37,0.00,,,0.00,,2013-04-05 23:42:00,
2013-04-05 19:52:00,56.0,31.0,30.01,North,359,2.0,9.0,38,0.00,,,0.00,,2013-04-05 23:52:00,
2013-04-05 20:03:00,55.0,31.0,30.02,North,356,3.0,6.0,39,0.00,,,0.00,,2013-04-06 00:03:00,
2013-04-05 20:13:00,55.0,31.0,30.02,North,356,3.0,6.0,39,0.00,,,0.00,,2013-04-06 00:13:00,
2013-04-05 20:23:00,55.0,31.0,30.02,North,357,2.0,6.0,40,0.00,,,0.00,,2013-04-06 00:23:00,
2013-04-05 20:33:00,54.0,31.0,30.03,North,356,2.0,4.0,41,0.00,,,0.00,,2013-04-06 00:33:00,
2013-04-05 20:42:00,54.0,31.0,30.03,North,356,2.0,4.0,41,0.00,,,0.00,,2013-04-06 00:42:00,
2013-04-05 20:52:00,53.0,31.0,30.03,North,356,2.0,6.0,42,0.00,,,0.00,,2013-04-06 00:52:00,
2013-04-05 21:02:00,52.0,30.0,30.04,North,356,1.0,3.0,43,0.00,,,0.00,,2013-04-06 01:02:00,
2013-04-05 21:13:00,52.0,30.0,30.05,North,356,2.0,5.0,43,0.00,,,0.00,,2013-04-06 01:13:00,
2013-04-05 21:22:00,52.0,30.0,30.05,North,356,2.0,5.0,43,0.00,,,0.00,,2013-04-06 01:22:00,
2013-04-05 21:33:00,51.0,30.0,30.06,North,356,1.0,4.0,45,0.00,,,0.00,,2013-04-06 01:33:00,
2013-04-05 21:43:00,51.0,30.0,30.06,North,356,1.0,4.0,45,0.00,,,0.00,,2013-04-06 01:43:00,
2013-04-05 21:52:00,50.0,30.0,30.06,North,359,3.0,5.0,46,0.00,,,0.00,,2013-04-06 01:52:00,
2013-04-05 22:02:00,50.0,31.0,30.08,North,359,2.0,5.0,47,0.00,,,0.00,,2013-04-06 02:02:00,
2013-04-05 22:12:00,50.0,31.0,30.08,North,359,2.0,5.0,47,0.00,,,0.00,,2013-04-06 02:12:00,
2013-04-05 22:23:00,49.0,30.0,30.08,North,359,2.0,6.0,48,0.00,,,0.00,,2013-04-06 02:23:00,
2013-04-05 22:33:00,49.0,30.0,30.09,North,359,2.0,4.0,48,0.00,,,0.00,,2013-04-06 02:33:00,
2013-04-05 22:42:00,49.0,30.0,30.09,North,359,2.0,4.0,48,0.00,,,0.00,,2013-04-06 02:42:00,
2013-04-05 22:52:00,49.0,30.0,30.09,North,359,1.0,4.0,48,0.00,,,0.00,,2013-04-06 02:52:00,
2013-04-05 23:03:00,48.0,30.0,30.09,North,359,1.0,3.0,49,0.00,,,0.00,,2013-04-06 03:03:00,
2013-04-05 23:13:00,48.0,30.0,30.09,North,359,1.0,3.0,49,0.00,,,0.00,,2013-04-06 03:13:00,
2013-04-05 23:22:00,48.0,30.0,30.09,North,359,1.0,3.0,49,0.00,,,0.00,,2013-04-06 03:22:00,
2013-04-05 23:34:00,47.0,29.0,30.09,North,359,1.0,3.0,50,0.00,,,0.00,,2013-04-06 03:34:00,
2013-04-05 23:43:00,47.0,29.0,30.09,North,359,1.0,3.0,50,0.00,,,0.00,,2013-04-06 03:43:00,
2013-04-05 23:53:00,47.0,29.0,30.09,North,359,1.0,3.0,50,0.00,,,0.00,,2013-04-06 03:53:00,